Estherville, IA

2:29 PM CST on December 10, 2016 (GMT -0600)
Estherville Municipal

Weather History for KEST - November, 2012

Change the Weather History Date:

Wednesday, November 14, 2012

  Actual Average Record
Temperature  
Mean Temperature 41 °F 34 °F  
Max Temperature 52 °F 43 °F 70 °F (1953)
Min Temperature 30 °F 24 °F -6 °F (1959)
Degree Days  
Heating Degree Days 24 31  
Month to date heating degree days 346 390  
Since 1 July heating degree days 1125 1139  
Cooling Degree Days 0 0  
Month to date cooling degree days 0 0  
Year to date cooling degree days 886 593  
Moisture  
Dew Point 30 °F    
Average Humidity 66    
Maximum Humidity 92    
Minimum Humidity 39    
Precipitation  
Precipitation 0.00 in 0.07 in 0.37 in (1983)
Month to date precipitation 0.75 0.77  
Sea Level Pressure  
Sea Level Pressure 30.24 in    
Wind  
Wind Speed 8 mph (SSW)    
Max Wind Speed 14 mph    
Max Gust Speed 16 mph    
Visibility 10 miles    
Events      
T = Trace of Precipitation, MM = Missing Value Source: NWS Daily Summary

Daily Weather History Graph

Daily Weather History Graph

Search for Another Location

Airport or City:

Trip Planner

Search our weather history database for the weather conditions in past years. The results will help you decide how hot, cold, wet, or windy it might be!

Date:

Astronomy

Nov. 14, 2012 Rise Set
Actual Time 7:11 AM CST 4:54 PM CST
Civil Twilight 6:41 AM CST 5:25 PM CST
Nautical Twilight 6:06 AM CST 6:00 PM CST
Astronomical Twilight 5:32 AM CST 6:33 PM CST
Moon 8:03 AM CST (11/14) 5:42 PM CST (11/14)
Length of Visible Light 10h 44m
Length of Day
9h 42m
New Moon, 1% of the Moon is Illuminated
Nov 14
New Moon
Nov 20
First Quarter
Nov 28
Full
Dec 6
Last Quarter
Dec 13
New

Hourly Weather History & Observations

Time (CST) Temp. Windchill Dew Point Humidity Pressure Visibility Wind Dir Wind Speed Gust Speed Precip Events Conditions
12:52 AM 35.1 °F 27.9 °F 28.9 °F 78% 30.27 in 10.0 mi South 9.2 mph - N/A   Overcast
1:52 AM 34.0 °F 28.8 °F 28.9 °F 82% 30.26 in 10.0 mi SSW 5.8 mph - N/A   Overcast
2:52 AM 34.0 °F 26.6 °F 28.9 °F 82% 30.27 in 10.0 mi South 9.2 mph - N/A   Overcast
3:52 AM 34.0 °F 28.0 °F 30.0 °F 85% 30.28 in 10.0 mi SSW 6.9 mph - N/A   Overcast
4:52 AM 35.1 °F 29.3 °F 30.0 °F 82% 30.28 in 10.0 mi WSW 6.9 mph - N/A   Overcast
5:52 AM 32.0 °F 28.7 °F 28.0 °F 85% 30.29 in 9.0 mi SW 3.5 mph - N/A   Scattered Clouds
6:52 AM 30.9 °F 25.2 °F 27.0 °F 85% 30.29 in 9.0 mi WSW 5.8 mph - N/A   Clear
7:52 AM 30.9 °F 25.2 °F 28.0 °F 89% 30.30 in 7.0 mi South 5.8 mph - N/A   Clear
8:52 AM 35.1 °F 31.0 °F 30.0 °F 82% 30.30 in 8.0 mi SSW 4.6 mph - N/A   Scattered Clouds
9:52 AM 41.0 °F 37.1 °F 30.9 °F 67% 30.30 in 9.0 mi SSW 5.8 mph - N/A   Clear
10:52 AM 46.0 °F 43.1 °F 30.9 °F 56% 30.28 in 10.0 mi SSW 5.8 mph - N/A   Mostly Cloudy
11:52 AM 48.9 °F - 28.0 °F 44% 30.26 in 10.0 mi South 9.2 mph - N/A   Overcast
12:52 PM 50.0 °F - 26.1 °F 39% 30.24 in 10.0 mi SSW 9.2 mph - N/A   Clear
1:52 PM 52.0 °F - 28.9 °F 41% 30.22 in 10.0 mi SSW 11.5 mph - N/A   Mostly Cloudy
2:52 PM 51.1 °F - 30.0 °F 44% 30.21 in 10.0 mi South 12.7 mph - N/A   Partly Cloudy
3:52 PM 48.9 °F - 32.0 °F 52% 30.21 in 10.0 mi SSW 9.2 mph - N/A   Clear
4:52 PM 44.1 °F 40.1 °F 32.0 °F 63% 30.20 in 10.0 mi SSW 6.9 mph - N/A   Clear
5:52 PM 43.0 °F 38.2 °F 30.9 °F 62% 30.19 in 10.0 mi SSW 8.1 mph - N/A   Clear
6:52 PM 42.1 °F 37.1 °F 30.0 °F 62% 30.20 in 10.0 mi SSW 8.1 mph - N/A   Mostly Cloudy
7:52 PM 37.0 °F 31.6 °F 30.9 °F 79% 30.21 in 10.0 mi South 6.9 mph - N/A   Overcast
8:52 PM 37.9 °F 32.7 °F 30.0 °F 73% 30.19 in 10.0 mi South 6.9 mph - N/A   Scattered Clouds
9:52 PM 37.9 °F 32.1 °F 30.9 °F 76% 30.19 in 10.0 mi South 8.1 mph - N/A   Overcast
10:52 PM 37.9 °F 30.5 °F 30.0 °F 73% 30.18 in 10.0 mi South 11.5 mph - N/A   Overcast
11:52 PM 37.0 °F 29.8 °F 30.0 °F 76% 30.17 in 10.0 mi South 10.4 mph - N/A   Clear